This is the latest recevied weather packets stored in our database for station/object K4WCH. If no packets are shown the sender has not sent any weather packets the latest 10 day(s).
| Time | Temp. | Humidity | Pressure | Rain* | Wind** | Luminosity | Snow |
|---|---|---|---|---|---|---|---|
| 1788444217 | 26.11° C | 90% | 1015.8 hPa | 0 mm | - | 134 W/m² | - |
| 1788443912 | 26.11° C | 90% | 1016 hPa | 0 mm | - | 126 W/m² | - |
| 1788443608 | 26.11° C | 90% | 1015.8 hPa | 0 mm | - | 143 W/m² | - |
| 1788443306 | 26.67° C | 88% | 1015.9 hPa | 0 mm | - | 155 W/m² | - |
| 1788443002 | 26.67° C | 89% | 1015.8 hPa | 0 mm | - | 147 W/m² | - |
| 1788442700 | 26.67° C | 89% | 1015.6 hPa | 0 mm | - | 170 W/m² | - |
| 1788442396 | 26.11° C | 89% | 1015.5 hPa | 0 mm | - | 183 W/m² | - |
| 1788442096 | 26.11° C | 89% | 1015.5 hPa | 0 mm | - | 178 W/m² | - |
| 1788441792 | 26.11° C | 89% | 1015.5 hPa | 0 mm | - | 184 W/m² | - |
| 1788441487 | 26.11° C | 90% | 1015.4 hPa | 0 mm | - | 179 W/m² | - |
| 1788441186 | 26.11° C | 90% | 1015.6 hPa | 0 mm | - | 177 W/m² | - |
| 1788440881 | 26.11° C | 90% | 1015.3 hPa | 0 mm | - | 182 W/m² | - |
| 1788440575 | 26.11° C | 91% | 1015.5 hPa | 0 mm | - | 194 W/m² | - |
| 1788440274 | 26.11° C | 92% | 1015.4 hPa | 0 mm | - | 188 W/m² | - |
| 1788439969 | 26.11° C | 93% | 1015.3 hPa | 0 mm | - | 124 W/m² | - |
| 1788439668 | 26.11° C | 94% | 1015.5 hPa | 0 mm | - | 100 W/m² | - |
| 1788439364 | 25.56° C | 95% | 1015.4 hPa | 0 mm | - | 85 W/m² | - |
| 1788439062 | 25.56° C | 95% | 1015.4 hPa | 0 mm | - | 84 W/m² | - |
| 1788438762 | 25.56° C | 95% | 1015.4 hPa | 0 mm | - | 76 W/m² | - |
| 1788438461 | 25.56° C | 96% | 1015.3 hPa | 0 mm | - | 73 W/m² | - |
| 1788438156 | 25.56° C | 97% | 1015.3 hPa | 0 mm | - | 79 W/m² | - |
| 1788437854 | 25.56° C | 98% | 1015.3 hPa | 0 mm | - | 84 W/m² | - |
| 1788437550 | 25.56° C | 98% | 1015.1 hPa | 0 mm | - | 68 W/m² | - |
| 1788437250 | 25.56° C | 98% | 1014.9 hPa | 0 mm | - | 55 W/m² | - |
| 1788436944 | 25.56° C | 99% | 1015 hPa | 0 mm | - | 49 W/m² | - |
* Rain latest hour (hover to see other rain measurements)
** Current wind speed in m/s (hover to see current wind gust speed)